This demonstration page uses our WeatherBlox Daily Observations layout. Learn more.

Left ArrowRight Arrow

39.01783, -85.05884

Hourly Observations for September 29, 2015

Temp ( °F °C ) Dew Point ( °F °C ) Humidity (%) Winds ( mph kmh ) Pressure ( in mb ) Visibility ( mi km ) Precip ( " mm )
12:52 am 00:52 Cloudy with Light Rain 72 22.2 67 19.4 84 84 Calm 29.97 1015 10 16 0.00 0.03
1:52 am 01:52 Cloudy with Light Rain 71 21.7 68 20 90 90 Calm 29.95 1014 10 16 0.00 0.03
2:52 am 02:52 Cloudy with Light Rain 70 21.1 68 20 93 93 Calm 29.93 1014 10 16 0.00 0.03
3:52 am 03:52 Cloudy 70 21.1 68 20 93 93 Calm 29.91 1013 10 16 0.00 0.03
4:52 am 04:52 Cloudy 70 21.1 68 20 93 93 Calm 29.90 1013 10 16 0.00 0.00
5:52 am 05:52 Cloudy with Light Rain 71 21.7 68 20 90 90 N 5 7 29.90 1013 10 16 0.00 0.03
6:52 am 06:52 Cloudy with Light Rain 70 21.1 68 20 93 93 Calm 29.91 1013 10 16 0.01 0.25
7:52 am 07:52 Cloudy with Light Rain 70 21.1 68 20 93 93 Calm 29.91 1013 5 8 0.04 1.02
8:52 am 08:52 Cloudy with Light Rain 70 21.1 69 20.6 97 97 Calm 29.91 1013 4 6 0.05 1.27
9:52 am 09:52 Cloudy with Rain 70 21.1 69 20.6 97 97 N 5 7 29.91 1013 3 4 0.06 1.52
10:46 am 10:46 Cloudy with Light Rain 72 22 70 21 94 94 NNE 3 6 29.91 1013 3 4 0.00 0.00
10:52 am 10:52 Cloudy with Light Rain 71 21.7 69 20.6 94 94 NNE 3 6 29.91 1013 3 4 0.09 2.29
11:41 am 11:41 Mostly Cloudy with Mist and Fog 72 22 70 21 94 94 NNE 3 6 29.91 1013 3 4 0.02 0.51
11:52 am 11:52 Cloudy with Light Rain 71 21.7 69 20.6 94 94 NE 5 7 29.91 1013 3 4 0.02 0.51
12:18 pm 12:18 Cloudy with Rain 72 22 70 21 94 94 NE 5 7 29.91 1013 2 3 0.04 1.02
12:42 pm 12:42 Cloudy with Rain 72 22 70 21 94 94 NNE 6 9 29.88 1012 2 3 0.00 0.00
12:52 pm 12:52 Cloudy with Rain 71 21.7 69 20.6 94 94 NNE 7 11 29.89 1012 2 3 0.17 4.32
1:52 pm 13:52 Cloudy with Light Rain 72 22.2 69 20.6 91 91 NE 6 9 29.88 1012 3 4 0.08 2.03
2:26 pm 14:26 Cloudy with Rain 72 22 70 21 94 94 NE 6 9 29.85 1011 3 4 0.00 0.00
2:52 pm 14:52 Cloudy with Rain 71 21.7 69 20.6 94 94 ENE 8 13 29.86 1011 3 4 0.10 2.54
3:52 pm 15:52 Cloudy with Heavy Rain 69 20.6 68 20 96 96 N 10 17 29.85 1011 2 3 0.28 7.11
4:35 pm 16:35 Cloudy with Light Rain 70 21 66 19 88 88 N 8 13 29.85 1011 4 6 0.08 2.03
4:52 pm 16:52 Cloudy with Light Rain 69 20.6 67 19.4 93 93 N 9 15 29.84 1011 5 8 0.09 2.29
5:52 pm 17:52 Cloudy with Light Rain 70 21.1 67 19.4 90 90 N 12 19 29.84 1010 7 11 0.06 1.52
6:52 pm 18:52 Cloudy 69 20.6 67 19.4 93 93 NNE 10 17 29.84 1011 7 11 0.00 0.00
7:31 pm 19:31 Mostly Cloudy with Light Rain 70 21 66 19 88 88 NNE 7 11 29.85 1011 8 13 0.00 0.03
7:52 pm 19:52 Cloudy with Light Rain 68 20 67 19.4 96 96 N 6 9 29.84 1011 5 8 0.00 0.03
8:43 pm 20:43 Cloudy with Light Rain 68 20 66 19 94 94 NNW 7 11 29.85 1011 5 8 0.04 1.02
8:52 pm 20:52 Cloudy with Light Rain 68 20 66 18.9 93 93 NNW 8 13 29.86 1011 6 10 0.05 1.27
9:52 pm 21:52 Cloudy 67 19.4 65 18.3 93 93 N 8 13 29.87 1012 9 14 0.00 0.03
10:14 pm 22:14 Cloudy 66 19 64 18 94 94 N 10 17 29.85 1011 8 13 0.00 0.00
10:52 pm 22:52 Cloudy with Mist and Fog 66 18.9 65 18.3 96 96 N 7 11 29.87 1012 6 10 0.00 0.00
11:35 pm 23:35 Cloudy with Mist and Fog 66 19 64 18 94 94 N 8 13 29.88 1012 5 8 0.00 0.00
11:46 pm 23:46 Cloudy with Mist and Fog 66 19 64 18 94 94 N 8 13 29.88 1012 6 10 0.00 0.00
11:52 pm 23:52 Cloudy with Mist and Fog 66 18.9 65 18.3 96 96 NNW 8 13 29.88 1012 6 10 0.00 0.00

Powered by AerisWeather